Location: Kielce
(50.8833°N, 20.6167°E)
Time: 21:32:54
(UTC+01:00)

ISS - Visible Passes

Search period start: 15 December 2019 00:00
Search period end: 25 December 2019 00:00
Orbit: 411 x 421 km, 51.6° (Epoch: 16 December)

Date Brightness Start Highest point End Pass type
(mag) Time Alt. Az. Time Alt. Az. Time Alt. Az.
21 Dec -0.5 06:22:37 10° S 06:24:25 14° SE 06:26:14 10° ESE visible
23 Dec -1.6 06:20:48 10° SSW 06:23:41 28° SSE 06:26:34 10° E visible
24 Dec -1.1 05:32:49 10° S 05:35:16 19° SE 05:37:43 10° E visible
